Back to catalog

STARLINK-2454

AliveCommunicationsVLEO
NORAD 48116·PAYLOAD·🇺🇸 United States

Launched Apr 7, 2021 from Cape Canaveral Space Force Station

Loading…

Next Passes (next 24 hours)

TLE

FreshSource: CelesTrak SupGP

Epoch: Sep 14, 2026, 19:37 UTC

1 48116C 21027AA  26257.81784722  .00024976  00000+0  80304-3 0  2575
2 48116  53.1600   5.6923 0001276  64.8678 279.3599 15.31694692    18

Track STARLINK-2454 in real time with AllMySat

Download on the App Store